N4JP KRDU-KBOS

Flight info

Callsign N4JP
Flight time 1h 30m
Altitude 45000
Route BEXGO5 BOUSY GEARS BBOBO Q22 RBV Q419 JFK ROBUC3
Aircraft C750/M-SBDE3FGHRWXY/S

Departure

Time 2026-05-07 00:35
Airport Raleigh-Durham International Airport (KRDU)

Arrival

Time 2026-05-07 02:06
Airport Boston Logan International Airport (KBOS)
Time Latitude Longitude Altitude Speed Heading
2026-05-07 00:22 35.88050 -78.78369 433 ft 0 kts 44°
2026-05-07 00:31 35.88058 -78.78359 430 ft 4 kts 50°
2026-05-07 00:31 35.88053 -78.78315 433 ft 5 kts 130°
2026-05-07 00:32 35.88031 -78.78287 433 ft 4 kts 135°
2026-05-07 00:32 35.88009 -78.78259 428 ft 5 kts 135°
2026-05-07 00:32 35.87971 -78.78210 432 ft 11 kts 127°
2026-05-07 00:32 35.88001 -78.78129 431 ft 11 kts 53°
2026-05-07 00:33 35.87991 -78.78055 430 ft 8 kts 127°
2026-05-07 00:33 35.87978 -78.78035 429 ft 0 kts 129°
2026-05-07 00:33 35.87978 -78.78034 429 ft 0 kts 129°
2026-05-07 00:34 35.87973 -78.78028 432 ft 3 kts 130°
2026-05-07 00:34 35.87939 -78.77984 432 ft 11 kts 136°
2026-05-07 00:34 35.87854 -78.78021 427 ft 22 kts 223°
2026-05-07 00:35 35.87498 -78.78459 426 ft 125 kts 225°
2026-05-07 00:35 35.86774 -78.79367 745 ft 157 kts 225°
2026-05-07 00:35 35.85986 -78.80337 1491 ft 164 kts 225°
2026-05-07 00:35 35.85136 -78.81313 2212 ft 175 kts 223°
2026-05-07 00:36 35.84061 -78.82092 3004 ft 183 kts 204°
2026-05-07 00:36 35.82739 -78.82280 3636 ft 209 kts 183°
2026-05-07 00:36 35.81280 -78.81651 4169 ft 242 kts 153°
2026-05-07 00:36 35.80077 -78.80076 4832 ft 267 kts 129°
2026-05-07 00:37 35.78930 -78.78179 5395 ft 284 kts 140°
2026-05-07 00:37 35.77236 -78.76825 5838 ft 294 kts 167°
2026-05-07 00:37 35.75330 -78.76768 7135 ft 264 kts 195°
2026-05-07 00:37 35.73625 -78.77509 8055 ft 261 kts 220°
2026-05-07 00:38 35.72611 -78.79260 9134 ft 252 kts 253°
2026-05-07 00:38 35.72657 -78.81409 10081 ft 261 kts 285°
2026-05-07 00:38 35.73676 -78.83300 10958 ft 271 kts 306°
2026-05-07 00:38 35.75059 -78.84910 11782 ft 283 kts 319°
2026-05-07 00:39 35.77007 -78.85849 11992 ft 321 kts 341°
2026-05-07 00:39 35.79143 -78.86158 12015 ft 299 kts 349°
2026-05-07 00:39 35.81149 -78.86279 12008 ft 287 kts 350°
2026-05-07 00:39 35.83154 -78.86369 11991 ft 285 kts 351°
2026-05-07 00:40 35.85178 -78.86468 11998 ft 308 kts 351°
2026-05-07 00:40 35.87422 -78.86608 12021 ft 337 kts 351°
2026-05-07 00:40 35.89792 -78.86770 12015 ft 340 kts 351°
2026-05-07 00:40 35.92162 -78.86722 11940 ft 349 kts
2026-05-07 00:41 35.94404 -78.85459 11921 ft 363 kts 32°
2026-05-07 00:41 35.96102 -78.83125 11984 ft 368 kts 52°
2026-05-07 00:41 35.97504 -78.80452 12024 ft 373 kts 55°
2026-05-07 00:41 35.98951 -78.77808 12008 ft 370 kts 50°
2026-05-07 00:42 36.00653 -78.75442 12005 ft 367 kts 41°
2026-05-07 00:42 36.02510 -78.73289 12007 ft 365 kts 38°
2026-05-07 00:42 36.04367 -78.71137 12002 ft 366 kts 41°
2026-05-07 00:42 36.06119 -78.68832 11998 ft 368 kts 44°
2026-05-07 00:43 36.07838 -78.66492 12000 ft 367 kts 43°
2026-05-07 00:43 36.09605 -78.64229 11996 ft 367 kts 41°
2026-05-07 00:43 36.11404 -78.61981 12001 ft 366 kts 42°
2026-05-07 00:43 36.13143 -78.59740 11995 ft 366 kts 43°
2026-05-07 00:44 36.14893 -78.57447 11995 ft 367 kts 43°
2026-05-07 00:44 36.16654 -78.55169 11995 ft 366 kts 42°
2026-05-07 00:44 36.18425 -78.52898 11999 ft 366 kts 42°
2026-05-07 00:44 36.20192 -78.50619 12004 ft 366 kts 43°
2026-05-07 00:45 36.21959 -78.48327 12005 ft 378 kts 43°
2026-05-07 00:45 36.23828 -78.45913 12381 ft 392 kts 43°
2026-05-07 00:45 36.25710 -78.43468 13297 ft 391 kts 43°
2026-05-07 00:45 36.27635 -78.41059 13934 ft 394 kts 38°
2026-05-07 00:46 36.29815 -78.38987 14515 ft 395 kts 31°
2026-05-07 00:46 36.32054 -78.36976 15179 ft 399 kts 31°
2026-05-07 00:46 36.34296 -78.34903 15790 ft 405 kts 32°
2026-05-07 00:46 36.36545 -78.32770 16465 ft 408 kts 32°
2026-05-07 00:47 36.38822 -78.30637 17129 ft 413 kts 31°
2026-05-07 00:47 36.41145 -78.28493 17811 ft 417 kts 30°
2026-05-07 00:47 36.43485 -78.26320 18478 ft 422 kts 30°
2026-05-07 00:47 36.45808 -78.24140 19091 ft 427 kts 31°
2026-05-07 00:48 36.48193 -78.21904 19754 ft 431 kts 30°
2026-05-07 00:48 36.50599 -78.19660 20415 ft 436 kts 30°
2026-05-07 00:48 36.53036 -78.17376 21074 ft 441 kts 31°
2026-05-07 00:48 36.55491 -78.15051 21735 ft 446 kts 31°
2026-05-07 00:49 36.57973 -78.12701 22396 ft 450 kts 31°
2026-05-07 00:49 36.60486 -78.10335 23047 ft 455 kts 31°
2026-05-07 00:49 36.63027 -78.07940 23675 ft 460 kts 31°
2026-05-07 00:49 36.65593 -78.05511 24219 ft 465 kts 31°
2026-05-07 00:50 36.68181 -78.03057 24765 ft 469 kts 32°
2026-05-07 00:50 36.70790 -78.00587 25310 ft 474 kts 32°
2026-05-07 00:50 36.73430 -77.98087 25834 ft 478 kts 32°
2026-05-07 00:50 36.76088 -77.95564 26357 ft 483 kts 32°
2026-05-07 00:51 36.78770 -77.93015 26834 ft 487 kts 32°
2026-05-07 00:51 36.81429 -77.90341 27256 ft 498 kts 38°
2026-05-07 00:51 36.83594 -77.86974 27715 ft 508 kts 51°
2026-05-07 00:51 36.85610 -77.83323 28290 ft 512 kts 52°
2026-05-07 00:52 36.87644 -77.79642 28755 ft 517 kts 52°
2026-05-07 00:52 36.89718 -77.75948 29236 ft 521 kts 51°
2026-05-07 00:52 36.91809 -77.72226 29710 ft 526 kts 52°
2026-05-07 00:52 36.93902 -77.68454 30143 ft 531 kts 52°
2026-05-07 00:53 36.96006 -77.64646 30509 ft 535 kts 51°
2026-05-07 00:53 36.98143 -77.60803 30865 ft 540 kts 51°
2026-05-07 00:53 37.00297 -77.56937 31411 ft 540 kts 50°
2026-05-07 00:53 37.02437 -77.53071 31940 ft 542 kts 50°
2026-05-07 00:54 37.04579 -77.49191 32425 ft 543 kts 49°
2026-05-07 00:54 37.06733 -77.45296 32976 ft 544 kts 48°
2026-05-07 00:54 37.09085 -77.41644 33341 ft 533 kts 36°
2026-05-07 00:54 37.11948 -77.38832 33930 ft 512 kts 21°
2026-05-07 00:55 37.15060 -77.36900 34545 ft 488 kts
2026-05-07 00:55 37.17162 -77.35941 34983 ft 482 kts
2026-05-07 00:55 37.20316 -77.34608 35622 ft 476 kts
2026-05-07 00:55 37.23438 -77.33309 36236 ft 475 kts
2026-05-07 00:56 37.26580 -77.31937 36857 ft 475 kts
2026-05-07 00:56 37.29691 -77.30548 37482 ft 472 kts
2026-05-07 00:56 37.32795 -77.29197 38120 ft 469 kts
2026-05-07 00:56 37.35873 -77.27880 38757 ft 466 kts
2026-05-07 00:57 37.38941 -77.26551 39262 ft 466 kts
2026-05-07 00:57 37.42007 -77.25204 39729 ft 466 kts
2026-05-07 00:57 37.45062 -77.23864 40209 ft 465 kts
2026-05-07 00:57 37.48121 -77.22533 40697 ft 464 kts
2026-05-07 00:58 37.51137 -77.21220 41145 ft 464 kts
2026-05-07 00:58 37.54189 -77.19884 41578 ft 464 kts
2026-05-07 00:58 37.57234 -77.18547 42033 ft 464 kts
2026-05-07 00:58 37.60285 -77.17210 42441 ft 463 kts
2026-05-07 00:59 37.66380 -77.14539 43249 ft 463 kts
2026-05-07 00:59 37.69418 -77.13084 43520 ft 474 kts 11°
2026-05-07 00:59 37.72380 -77.11127 43929 ft 482 kts 17°
2026-05-07 01:00 37.75315 -77.09076 44361 ft 481 kts 16°
2026-05-07 01:00 37.78252 -77.07059 44705 ft 480 kts 16°
2026-05-07 01:00 37.81197 -77.05042 44933 ft 483 kts 16°
2026-05-07 01:01 37.87194 -77.00880 44923 ft 499 kts 17°
2026-05-07 01:01 37.93360 -76.96600 44923 ft 512 kts 17°
2026-05-07 01:02 37.99650 -76.92226 44924 ft 525 kts 18°
2026-05-07 01:02 38.06099 -76.87727 44912 ft 534 kts 18°
2026-05-07 01:03 38.12657 -76.83149 44899 ft 541 kts 18°
2026-05-07 01:03 38.19282 -76.78509 44880 ft 546 kts 19°
2026-05-07 01:04 38.25828 -76.73454 44858 ft 561 kts 28°
2026-05-07 01:04 38.31822 -76.66962 44891 ft 567 kts 32°
2026-05-07 01:05 38.37831 -76.60496 44895 ft 566 kts 31°
2026-05-07 01:05 38.43835 -76.53981 44890 ft 567 kts 32°
2026-05-07 01:06 38.49838 -76.47562 44890 ft 566 kts 31°
2026-05-07 01:06 38.55881 -76.41064 44892 ft 568 kts 32°
2026-05-07 01:07 38.61911 -76.34553 44892 ft 568 kts 31°
2026-05-07 01:07 38.67959 -76.28033 44890 ft 568 kts 32°
2026-05-07 01:08 38.73997 -76.21481 44898 ft 568 kts 32°
2026-05-07 01:08 38.80032 -76.14943 44906 ft 568 kts 32°
2026-05-07 01:09 38.86065 -76.08370 44913 ft 569 kts 32°
2026-05-07 01:09 38.92104 -76.01794 44899 ft 569 kts 32°
2026-05-07 01:10 38.98082 -75.95088 44891 ft 572 kts 35°
2026-05-07 01:10 39.03915 -75.88107 44897 ft 573 kts 35°
2026-05-07 01:11 39.09737 -75.81193 44878 ft 573 kts 35°
2026-05-07 01:11 39.15580 -75.74193 44881 ft 573 kts 35°
2026-05-07 01:12 39.21430 -75.67195 44879 ft 573 kts 35°
2026-05-07 01:12 39.27267 -75.60180 44877 ft 574 kts 35°
2026-05-07 01:13 39.33115 -75.53144 44880 ft 575 kts 35°
2026-05-07 01:13 39.38966 -75.46081 44876 ft 575 kts 36°
2026-05-07 01:14 39.44814 -75.39008 44890 ft 576 kts 36°
2026-05-07 01:14 39.50664 -75.31916 44893 ft 577 kts 36°
2026-05-07 01:15 39.56517 -75.24801 44747 ft 579 kts 36°
2026-05-07 01:15 39.59462 -75.21219 44337 ft 579 kts 36°
2026-05-07 01:15 39.62379 -75.17654 43884 ft 573 kts 35°
2026-05-07 01:15 39.65266 -75.14121 43448 ft 567 kts 35°
2026-05-07 01:16 39.68133 -75.10660 43009 ft 558 kts 32°
2026-05-07 01:16 39.71052 -75.07377 42587 ft 552 kts 31°
2026-05-07 01:16 39.73966 -75.04137 42182 ft 548 kts 30°
2026-05-07 01:16 39.76848 -75.00902 41788 ft 545 kts 30°
2026-05-07 01:17 39.79721 -74.97651 41407 ft 554 kts 30°
2026-05-07 01:17 39.82672 -74.94330 41060 ft 566 kts 30°
2026-05-07 01:17 39.85652 -74.90958 40720 ft 569 kts 30°
2026-05-07 01:17 39.88591 -74.87606 40380 ft 568 kts 30°
2026-05-07 01:18 39.91693 -74.84429 40006 ft 565 kts 23°
2026-05-07 01:18 39.94923 -74.81501 39675 ft 566 kts 22°
2026-05-07 01:18 39.98153 -74.78570 39347 ft 566 kts 22°
2026-05-07 01:18 40.01364 -74.75574 39012 ft 568 kts 23°
2026-05-07 01:19 40.04418 -74.72214 38628 ft 582 kts 31°
2026-05-07 01:19 40.07207 -74.68334 38219 ft 587 kts 37°
2026-05-07 01:19 40.09920 -74.64349 37823 ft 583 kts 37°
2026-05-07 01:19 40.12631 -74.60440 37433 ft 579 kts 36°
2026-05-07 01:20 40.15348 -74.56585 37045 ft 576 kts 36°
2026-05-07 01:20 40.18035 -74.52723 36863 ft 571 kts 37°
2026-05-07 01:20 40.20765 -74.48991 36846 ft 567 kts 31°
2026-05-07 01:21 40.26853 -74.42306 36857 ft 586 kts 31°
2026-05-07 01:21 40.29706 -74.38358 36859 ft 607 kts 40°
2026-05-07 01:21 40.32238 -74.33858 36862 ft 623 kts 48°
2026-05-07 01:21 40.34374 -74.28918 36863 ft 636 kts 56°
2026-05-07 01:22 40.36053 -74.23708 36859 ft 647 kts 64°
2026-05-07 01:22 40.37269 -74.18414 36864 ft 653 kts 71°
2026-05-07 01:23 40.38532 -74.10907 36880 ft 655 kts 75°
2026-05-07 01:23 40.40192 -73.98898 36876 ft 654 kts 77°
2026-05-07 01:24 40.42489 -73.87440 36853 ft 642 kts 63°
2026-05-07 01:24 40.46646 -73.77255 36847 ft 623 kts 47°
2026-05-07 01:25 40.52201 -73.68781 36852 ft 601 kts 32°
2026-05-07 01:25 40.55412 -73.65384 36851 ft 586 kts 24°
2026-05-07 01:25 40.58836 -73.62621 36852 ft 569 kts 15°
2026-05-07 01:25 40.62375 -73.60469 36857 ft 557 kts
2026-05-07 01:26 40.65976 -73.58603 36870 ft 554 kts
2026-05-07 01:26 40.69582 -73.56761 36621 ft 559 kts
2026-05-07 01:26 40.73182 -73.54704 35817 ft 569 kts 13°
2026-05-07 01:26 40.76610 -73.52192 35088 ft 572 kts 19°
2026-05-07 01:27 40.79978 -73.49284 34338 ft 568 kts 23°
2026-05-07 01:27 40.83150 -73.46379 33572 ft 561 kts 23°
2026-05-07 01:27 40.86231 -73.43183 32807 ft 565 kts 31°
2026-05-07 01:27 40.89009 -73.39467 32074 ft 568 kts 39°
2026-05-07 01:28 40.91599 -73.35564 31342 ft 561 kts 40°
2026-05-07 01:28 40.94176 -73.31719 30608 ft 554 kts 40°
2026-05-07 01:28 40.96750 -73.27961 29872 ft 548 kts 39°
2026-05-07 01:28 40.99286 -73.24234 29108 ft 542 kts 40°
2026-05-07 01:29 41.01771 -73.20512 28397 ft 537 kts 40°
2026-05-07 01:29 41.04238 -73.16818 27694 ft 532 kts 40°
2026-05-07 01:29 41.06695 -73.13178 26998 ft 527 kts 40°
2026-05-07 01:29 41.09070 -73.09643 26848 ft 497 kts 40°
2026-05-07 01:30 41.11363 -73.06212 26378 ft 506 kts 40°
2026-05-07 01:30 41.13764 -73.02677 25690 ft 520 kts 40°
2026-05-07 01:30 41.16151 -72.99098 24939 ft 516 kts 41°
2026-05-07 01:30 41.18501 -72.95532 24204 ft 510 kts 41°
2026-05-07 01:31 41.20789 -72.91964 23456 ft 508 kts 45°
2026-05-07 01:31 41.22571 -72.87880 22521 ft 510 kts 59°
2026-05-07 01:31 41.24144 -72.83710 21711 ft 499 kts 59°
2026-05-07 01:31 41.25687 -72.79649 20931 ft 486 kts 59°
2026-05-07 01:32 41.27183 -72.75771 20852 ft 454 kts 59°
2026-05-07 01:32 41.28562 -72.72170 20843 ft 442 kts 59°
2026-05-07 01:32 41.30013 -72.68382 20860 ft 466 kts 59°
2026-05-07 01:32 41.31505 -72.64468 20860 ft 480 kts 60°
2026-05-07 01:33 41.33006 -72.60494 20863 ft 481 kts 60°
2026-05-07 01:33 41.34514 -72.56515 20861 ft 482 kts 60°
2026-05-07 01:33 41.36010 -72.52584 20860 ft 482 kts 60°
2026-05-07 01:33 41.37545 -72.48541 20860 ft 483 kts 60°
2026-05-07 01:34 41.39055 -72.44541 20863 ft 483 kts 60°
2026-05-07 01:34 41.40544 -72.40588 20857 ft 483 kts 60°
2026-05-07 01:34 41.42055 -72.36587 20854 ft 483 kts 60°
2026-05-07 01:34 41.43565 -72.32586 20852 ft 484 kts 60°
2026-05-07 01:35 41.45074 -72.28573 20852 ft 483 kts 60°
2026-05-07 01:35 41.46576 -72.24565 20856 ft 483 kts 60°
2026-05-07 01:35 41.48080 -72.20557 20856 ft 483 kts 60°
2026-05-07 01:35 41.49570 -72.16542 20857 ft 483 kts 61°
2026-05-07 01:36 41.51036 -72.12494 20858 ft 483 kts 62°
2026-05-07 01:36 41.52497 -72.08458 20857 ft 483 kts 61°
2026-05-07 01:36 41.53975 -72.04435 20856 ft 483 kts 61°
2026-05-07 01:36 41.55450 -72.00405 20855 ft 483 kts 62°
2026-05-07 01:37 41.56730 -71.96238 20637 ft 486 kts 67°
2026-05-07 01:37 41.57964 -71.92060 20252 ft 480 kts 67°
2026-05-07 01:37 41.59207 -71.87957 19836 ft 473 kts 66°
2026-05-07 01:37 41.60431 -71.83912 19421 ft 467 kts 68°
2026-05-07 01:38 41.61609 -71.79898 19018 ft 461 kts 68°
2026-05-07 01:38 41.62763 -71.75928 18601 ft 456 kts 69°
2026-05-07 01:38 41.63530 -71.73325 18341 ft 452 kts 68°
2026-05-07 01:38 41.65059 -71.68183 17789 ft 446 kts 69°
2026-05-07 01:39 41.66190 -71.64336 17498 ft 442 kts 69°
2026-05-07 01:39 41.67309 -71.60499 17146 ft 443 kts 69°
2026-05-07 01:39 41.68068 -71.57902 16885 ft 441 kts 69°
2026-05-07 01:39 41.69548 -71.52862 16383 ft 438 kts 69°
2026-05-07 01:40 41.70283 -71.50351 16125 ft 436 kts 69°
2026-05-07 01:40 41.71384 -71.46576 15740 ft 433 kts 69°
2026-05-07 01:40 41.72519 -71.42859 15346 ft 431 kts 64°
2026-05-07 01:40 41.73953 -71.39414 14990 ft 413 kts 58°
2026-05-07 01:41 41.75367 -71.36201 14635 ft 390 kts 58°
2026-05-07 01:41 41.76691 -71.33126 14298 ft 374 kts 59°
2026-05-07 01:41 41.77957 -71.30119 13974 ft 367 kts 59°
2026-05-07 01:41 41.79218 -71.27148 13655 ft 366 kts 59°
2026-05-07 01:42 41.80485 -71.24194 13310 ft 362 kts 58°
2026-05-07 01:42 41.81719 -71.21302 12980 ft 354 kts 59°
2026-05-07 01:42 41.82926 -71.18454 12673 ft 350 kts 59°
2026-05-07 01:42 41.84159 -71.15553 12362 ft 364 kts 59°
2026-05-07 01:43 41.85403 -71.12626 12054 ft 356 kts 59°
2026-05-07 01:43 41.86596 -71.09827 11987 ft 334 kts 58°
2026-05-07 01:43 41.87747 -71.07187 11985 ft 326 kts 58°
2026-05-07 01:43 41.88910 -71.04522 11992 ft 334 kts 58°
2026-05-07 01:44 41.90079 -71.01808 11990 ft 336 kts 58°
2026-05-07 01:44 41.91233 -70.99119 11995 ft 337 kts 58°
2026-05-07 01:44 41.92410 -70.96389 12001 ft 339 kts 58°
2026-05-07 01:44 41.93630 -70.93565 11864 ft 354 kts 58°
2026-05-07 01:45 41.94855 -70.90714 11584 ft 351 kts 58°
2026-05-07 01:45 41.96069 -70.87883 11272 ft 347 kts 58°
2026-05-07 01:45 41.97272 -70.85081 10967 ft 344 kts 58°
2026-05-07 01:45 41.98427 -70.82389 10675 ft 340 kts 58°
2026-05-07 01:46 41.99605 -70.79640 10377 ft 338 kts 58°
2026-05-07 01:46 42.00780 -70.76918 10086 ft 335 kts 57°
2026-05-07 01:46 42.02207 -70.74475 9728 ft 331 kts 45°
2026-05-07 01:46 42.03765 -70.72211 9421 ft 329 kts 43°
2026-05-07 01:47 42.05309 -70.69952 9111 ft 327 kts 45°
2026-05-07 01:47 42.06817 -70.67667 8797 ft 325 kts 45°
2026-05-07 01:47 42.08312 -70.65399 8489 ft 322 kts 45°
2026-05-07 01:47 42.09815 -70.63176 8174 ft 319 kts 43°
2026-05-07 01:48 42.11602 -70.61522 7785 ft 308 kts 17°
2026-05-07 01:48 42.13597 -70.60814 7568 ft 297 kts
2026-05-07 01:48 42.15621 -70.60278 7326 ft 297 kts
2026-05-07 01:48 42.17649 -70.59732 7046 ft 297 kts
2026-05-07 01:49 42.19675 -70.59158 6765 ft 296 kts
2026-05-07 01:49 42.21692 -70.58586 6479 ft 294 kts
2026-05-07 01:49 42.23687 -70.58032 6195 ft 292 kts
2026-05-07 01:49 42.25670 -70.57480 5903 ft 290 kts
2026-05-07 01:50 42.27639 -70.56930 5626 ft 288 kts
2026-05-07 01:50 42.29598 -70.56381 5349 ft 287 kts
2026-05-07 01:50 42.31550 -70.56107 5002 ft 277 kts 349°
2026-05-07 01:50 42.33275 -70.56831 4946 ft 246 kts 327°
2026-05-07 01:51 42.34601 -70.58186 4957 ft 239 kts 309°
2026-05-07 01:51 42.35799 -70.59779 4976 ft 243 kts 309°
2026-05-07 01:51 42.36967 -70.61281 4961 ft 218 kts 310°
2026-05-07 01:51 42.38021 -70.62653 4944 ft 206 kts 309°
2026-05-07 01:52 42.39049 -70.64022 4948 ft 210 kts 309°
2026-05-07 01:52 42.40098 -70.65406 4947 ft 212 kts 309°
2026-05-07 01:52 42.41146 -70.66782 4943 ft 212 kts 309°
2026-05-07 01:52 42.42209 -70.68179 4947 ft 213 kts 309°
2026-05-07 01:53 42.43269 -70.69574 4950 ft 212 kts 309°
2026-05-07 01:53 42.44327 -70.70969 4953 ft 212 kts 309°
2026-05-07 01:53 42.45383 -70.72361 4957 ft 212 kts 309°
2026-05-07 01:53 42.46446 -70.73762 4959 ft 212 kts 309°
2026-05-07 01:54 42.47501 -70.75153 4958 ft 212 kts 309°
2026-05-07 01:54 42.48560 -70.76551 4957 ft 212 kts 309°
2026-05-07 01:54 42.49621 -70.77954 4955 ft 213 kts 309°
2026-05-07 01:54 42.50684 -70.79357 4959 ft 213 kts 309°
2026-05-07 01:55 42.51797 -70.80696 4921 ft 218 kts 320°
2026-05-07 01:55 42.53266 -70.81348 4927 ft 230 kts 347°
2026-05-07 01:55 42.54861 -70.81044 4929 ft 240 kts 12°
2026-05-07 01:55 42.56456 -70.80240 4967 ft 242 kts 15°
2026-05-07 01:56 42.58010 -70.79457 4960 ft 241 kts 14°
2026-05-07 01:56 42.59593 -70.78682 4959 ft 242 kts 14°
2026-05-07 01:56 42.61168 -70.77909 4962 ft 240 kts 14°
2026-05-07 01:56 42.62734 -70.77135 4961 ft 234 kts 14°
2026-05-07 01:57 42.64227 -70.76374 4935 ft 225 kts 15°
2026-05-07 01:57 42.65729 -70.76300 4845 ft 210 kts 335°
2026-05-07 01:57 42.66770 -70.77515 4858 ft 195 kts 297°
2026-05-07 01:57 42.67202 -70.79224 4951 ft 192 kts 277°
2026-05-07 01:58 42.67229 -70.81027 4914 ft 192 kts 256°
2026-05-07 01:58 42.66698 -70.82687 4860 ft 195 kts 245°
2026-05-07 01:58 42.65938 -70.84233 4531 ft 202 kts 228°
2026-05-07 01:58 42.64771 -70.85306 4223 ft 203 kts 216°
2026-05-07 01:59 42.63589 -70.86259 3959 ft 197 kts 216°
2026-05-07 01:59 42.62543 -70.87355 3947 ft 186 kts 223°
2026-05-07 01:59 42.61420 -70.88315 3934 ft 194 kts 211°
2026-05-07 01:59 42.60154 -70.88976 3955 ft 193 kts 206°
2026-05-07 02:00 42.58952 -70.89552 3945 ft 177 kts 206°
2026-05-07 02:00 42.57812 -70.90122 3935 ft 175 kts 207°
2026-05-07 02:00 42.56665 -70.90682 3941 ft 175 kts 206°
2026-05-07 02:00 42.55501 -70.91251 3775 ft 182 kts 206°
2026-05-07 02:01 42.54320 -70.91824 3536 ft 175 kts 206°
2026-05-07 02:01 42.53215 -70.92361 3310 ft 163 kts 207°
2026-05-07 02:01 42.52181 -70.92870 3096 ft 154 kts 208°
2026-05-07 02:01 42.51190 -70.93351 2901 ft 149 kts 208°
2026-05-07 02:02 42.50221 -70.93828 2704 ft 148 kts 208°
2026-05-07 02:02 42.49251 -70.94299 2513 ft 147 kts 207°
2026-05-07 02:02 42.48288 -70.94766 2319 ft 146 kts 208°
2026-05-07 02:02 42.47330 -70.95239 2119 ft 145 kts 208°
2026-05-07 02:03 42.46416 -70.95677 1919 ft 132 kts 208°
2026-05-07 02:03 42.45578 -70.96094 1754 ft 127 kts 210°
2026-05-07 02:03 42.44742 -70.96503 1594 ft 132 kts 207°
2026-05-07 02:03 42.43854 -70.96937 1410 ft 138 kts 206°
2026-05-07 02:04 42.42933 -70.97386 1221 ft 141 kts 205°
2026-05-07 02:04 42.42008 -70.97835 1024 ft 142 kts 206°
2026-05-07 02:04 42.41067 -70.98295 820 ft 142 kts 202°
2026-05-07 02:04 42.40581 -70.98534 696 ft 134 kts 202°
2026-05-07 02:05 42.39758 -70.98930 543 ft 118 kts 200°
2026-05-07 02:05 42.38986 -70.99294 428 ft 116 kts 200°
2026-05-07 02:05 42.38230 -70.99665 229 ft 115 kts 201°
2026-05-07 02:05 42.37487 -71.00029 43 ft 110 kts 200°
2026-05-07 02:06 42.36830 -71.00348 11 ft 82 kts 200°
2026-05-07 02:06 42.36492 -71.00510 15 ft 30 kts 200°
2026-05-07 02:06 42.36396 -71.00623 15 ft 14 kts 271°
2026-05-07 02:06 42.36413 -71.00700 15 ft 7 kts 291°
2026-05-07 02:07 42.36431 -71.00759 15 ft 7 kts 295°